Location: Ellerstadt
(49.4644°N, 8.2615°E)
Time: 11:30:24
(UTC+00:00)

CZ-2C R/B - Pass Details

Date: 03 March 2021
Orbit: 784 x 871 km, 98.2° (Epoch: 12 April)

Event Time Altitude Azimuth Distance (km) Brightness Sun altitude
Rises 17:59:43 0° 19° (NNE) 3,436 5.7 -8.4°
Reaches altitude 10° 18:02:17 10° 27° (NNE) 2,484 4.9 -8.8°
Maximum altitude 18:07:26 39° 96° (E) 1,227 3.1 -9.6°
Drops below altitude 10° 18:12:26 10° 165° (SSE) 2,412 4.9 -10.4°
Sets 18:14:54 0° 173° (S) 3,326 5.7 -10.8°
